TimeCDT,TemperatureF,Dew PointF,Humidity,Sea Level PressureIn,VisibilityMPH,Wind Direction,Wind SpeedMPH,Gust SpeedMPH,PrecipitationIn,Events,Conditions,WindDirDegrees,DateUTC
12:53 AM,66.9,61.0,81,30.06,10.0,South,3.5,-,N/A,,Clear,190,2013-10-04 05:53:00
1:53 AM,66.9,61.0,81,30.06,10.0,SSE,3.5,-,N/A,,Clear,160,2013-10-04 06:53:00
2:53 AM,66.0,62.1,87,30.06,10.0,SSE,3.5,-,N/A,,Clear,160,2013-10-04 07:53:00
3:53 AM,66.0,62.1,87,30.06,10.0,SE,3.5,-,N/A,,Clear,140,2013-10-04 08:53:00
4:53 AM,66.0,62.1,87,30.06,10.0,SE,3.5,-,N/A,,Clear,140,2013-10-04 09:53:00
5:53 AM,64.9,62.1,90,30.07,10.0,Calm,Calm,-,N/A,,Clear,0,2013-10-04 10:53:00
6:53 AM,64.0,62.1,93,30.09,9.0,Calm,Calm,-,N/A,,Mostly Cloudy,0,2013-10-04 11:53:00
7:53 AM,68.0,63.0,84,30.10,10.0,SE,3.5,-,N/A,,Mostly Cloudy,130,2013-10-04 12:53:00
8:53 AM,70.0,64.0,81,30.12,10.0,Calm,Calm,-,N/A,,Mostly Cloudy,0,2013-10-04 13:53:00
9:53 AM,73.0,64.0,73,30.12,10.0,South,5.8,-,0.01,,Mostly Cloudy,180,2013-10-04 14:53:00
10:53 AM,79.0,64.9,62,30.11,10.0,South,8.1,-,N/A,,Mostly Cloudy,190,2013-10-04 15:53:00
11:53 AM,81.0,64.9,58,30.10,10.0,South,6.9,-,N/A,,Mostly Cloudy,170,2013-10-04 16:53:00
12:53 PM,82.9,66.0,56,30.08,10.0,SSW,5.8,-,N/A,,Mostly Cloudy,210,2013-10-04 17:53:00
1:53 PM,84.0,66.0,55,30.06,10.0,WSW,5.8,-,N/A,,Mostly Cloudy,250,2013-10-04 18:53:00
2:53 PM,84.9,66.0,53,30.05,10.0,SSW,10.4,-,N/A,,Mostly Cloudy,210,2013-10-04 19:53:00
3:53 PM,84.9,64.0,49,30.04,10.0,SSW,3.5,-,N/A,,Scattered Clouds,210,2013-10-04 20:53:00
4:53 PM,84.9,64.9,51,30.04,10.0,Variable,3.5,-,N/A,,Mostly Cloudy,0,2013-10-04 21:53:00
5:53 PM,82.0,66.0,58,30.04,10.0,South,9.2,-,N/A,,Mostly Cloudy,180,2013-10-04 22:53:00
6:53 PM,78.1,66.9,68,30.04,10.0,SSE,5.8,-,N/A,,Scattered Clouds,160,2013-10-04 23:53:00
7:53 PM,75.9,66.9,74,30.05,10.0,South,5.8,-,N/A,,Scattered Clouds,170,2013-10-05 00:53:00
8:53 PM,73.9,66.9,79,30.07,10.0,SSE,5.8,-,N/A,,Scattered Clouds,160,2013-10-05 01:53:00
9:53 PM,73.0,66.9,81,30.07,10.0,South,3.5,-,N/A,,Scattered Clouds,170,2013-10-05 02:53:00
10:53 PM,72.0,66.9,84,30.07,10.0,Calm,Calm,-,N/A,,Scattered Clouds,0,2013-10-05 03:53:00
11:53 PM,70.0,66.0,87,30.06,10.0,SSE,4.6,-,N/A,,Scattered Clouds,160,2013-10-05 04:53:00